Wise, VA

8:25 PM EDT on August 16, 2017 (GMT -0400)
Lonesome Pine

Weather History for KLNP - November, 2014

Change the Weather History Date:

Tuesday, November 18, 2014

  Actual Average Record
Temperature  
Mean Temperature 19 °F -  
Max Temperature 23 °F 51 °F 73 °F (2016)
Min Temperature 15 °F 34 °F 15 °F (2005)
Degree Days  
Heating Degree Days 46    
Moisture  
Dew Point 7 °F    
Average Humidity 61    
Maximum Humidity 79    
Minimum Humidity 43    
Precipitation  
Precipitation 0.00 in - - ()
Sea Level Pressure  
Sea Level Pressure 30.10 in    
Wind  
Wind Speed 9 mph (West)    
Max Wind Speed 17 mph    
Max Gust Speed 29 mph    
Visibility 8 miles    
Events Snow    
Averages and records for this station are not official NWS values.
T = Trace of Precipitation, MM = Missing Value Source: NWS Daily Summary

Daily Weather History Graph

Daily Weather History Graph

Search for Another Location

Airport or City:

Trip Planner

Search our weather history database for the weather conditions in past years. The results will help you decide how hot, cold, wet, or windy it might be!

Date:

Astronomy

Nov. 18, 2014 Rise Set
Actual Time 7:11 AM EST 5:18 PM EST
Civil Twilight 6:43 AM EST 5:46 PM EST
Nautical Twilight 6:12 AM EST 6:17 PM EST
Astronomical Twilight 5:41 AM EST 6:48 PM EST
Moon 3:14 AM EST (11/18) 3:07 PM EST (11/18)
Length of Visible Light 11h 02m
Length of Day
10h 06m
Waning Crescent, 15% of the Moon is Illuminated
Nov 18
Waning Crescent
Nov 22
New
Nov 29
First Quarter
Dec 6
Full
Dec 14
Last Quarter

Hourly Weather History & Observations

Time (EST) Temp. Windchill Dew Point Humidity Pressure Visibility Wind Dir Wind Speed Gust Speed Precip Events Conditions
12:15 AM 17.6 °F 6.4 °F 8.6 °F 68% 30.00 in 10.0 mi WNW 9.2 mph - N/A Snow Light Snow
12:35 AM 17.6 °F 3.7 °F 10.4 °F 73% 30.00 in 10.0 mi West 13.8 mph 18.4 mph N/A Snow Light Snow
12:55 AM 17.6 °F 6.4 °F 8.6 °F 68% 30.00 in 10.0 mi West 9.2 mph 19.6 mph N/A   Overcast
1:15 AM 17.6 °F 5.7 °F 8.6 °F 68% 30.00 in 10.0 mi West 10.4 mph 16.1 mph N/A   Overcast
1:35 AM 17.6 °F 2.7 °F 6.8 °F 63% 30.00 in 10.0 mi WNW 16.1 mph 28.8 mph N/A   Overcast
1:55 AM 17.6 °F 6.4 °F 8.6 °F 68% 30.00 in 10.0 mi WNW 9.2 mph 20.7 mph N/A Snow Light Snow
2:15 AM 17.6 °F 9.3 °F 8.6 °F 68% 30.00 in 10.0 mi West 5.8 mph - N/A Snow Light Snow
2:35 AM 17.6 °F 10.7 °F 10.4 °F 73% 29.99 in 4.0 mi WNW 4.6 mph - N/A Snow Light Snow
2:55 AM 17.6 °F 6.4 °F 10.4 °F 73% 30.00 in 7.0 mi West 9.2 mph 17.3 mph N/A Snow Light Snow
3:15 AM 17.6 °F 8.2 °F 8.6 °F 68% 30.00 in 10.0 mi West 6.9 mph - N/A   Overcast
3:35 AM 17.6 °F 8.2 °F 10.4 °F 73% 30.00 in 7.0 mi West 6.9 mph - N/A Snow Light Snow
3:55 AM 17.6 °F 6.4 °F 10.4 °F 73% 30.00 in 10.0 mi West 9.2 mph - N/A Snow Light Snow
4:15 AM 17.6 °F 6.4 °F 12.2 °F 79% 30.00 in 1.0 mi WNW 9.2 mph - N/A Snow Snow
4:35 AM 17.6 °F 9.3 °F 10.4 °F 73% 30.00 in 10.0 mi WNW 5.8 mph - N/A Snow Light Snow
4:55 AM 17.6 °F 8.2 °F 10.4 °F 73% 30.01 in 10.0 mi WNW 6.9 mph - N/A Snow Light Snow
5:15 AM 17.6 °F 10.7 °F 10.4 °F 73% 30.01 in 7.0 mi West 4.6 mph - N/A Snow Light Snow
5:35 AM 17.6 °F 6.4 °F 8.6 °F 68% 30.02 in 10.0 mi West 9.2 mph - N/A Snow Light Snow
5:55 AM 17.6 °F 6.4 °F 8.6 °F 68% 30.02 in 7.0 mi West 9.2 mph 17.3 mph N/A Snow Light Snow
6:15 AM 17.6 °F 7.3 °F 10.4 °F 73% 30.03 in 3.0 mi West 8.1 mph 17.3 mph N/A Snow Light Snow
6:35 AM 17.6 °F 9.3 °F 10.4 °F 73% 30.03 in 1.8 mi West 5.8 mph - N/A Snow Light Snow
6:55 AM 17.6 °F 8.2 °F 10.4 °F 73% 30.04 in 2.5 mi West 6.9 mph - N/A Snow Light Snow
7:15 AM 17.6 °F 5.7 °F 10.4 °F 73% 30.05 in 1.8 mi West 10.4 mph 16.1 mph N/A Snow Light Snow
7:35 AM 17.6 °F 5.0 °F 10.4 °F 73% 30.06 in 4.0 mi West 11.5 mph 18.4 mph N/A Snow Light Snow
7:55 AM 17.6 °F 4.3 °F 8.6 °F 68% 30.07 in 2.5 mi West 12.7 mph 18.4 mph N/A Snow Light Snow
8:15 AM 17.6 °F 6.4 °F 8.6 °F 68% 30.08 in 10.0 mi West 9.2 mph - N/A   Overcast
8:35 AM 17.6 °F 3.2 °F 8.6 °F 68% 30.08 in 7.0 mi West 15.0 mph 21.9 mph N/A Snow Light Snow
8:55 AM 17.6 °F 4.3 °F 8.6 °F 68% 30.09 in 5.0 mi West 12.7 mph 18.4 mph N/A Snow Light Snow
9:15 AM 17.6 °F 4.3 °F 10.4 °F 73% 30.10 in 1.8 mi West 12.7 mph 17.3 mph N/A Snow Light Snow
9:35 AM 19.4 °F 4.5 °F 8.6 °F 63% 30.10 in 10.0 mi West 17.3 mph 24.2 mph N/A   Overcast
9:55 AM 19.4 °F 7.9 °F 6.8 °F 58% 30.11 in 7.0 mi West 10.4 mph 21.9 mph N/A   Overcast
10:15 AM 17.6 °F 8.2 °F 10.4 °F 73% 30.13 in 1.5 mi WNW 6.9 mph - N/A Snow Light Snow
10:35 AM 17.6 °F 7.3 °F 10.4 °F 73% 30.13 in 1.5 mi WNW 8.1 mph - N/A Snow Light Snow
10:55 AM 19.4 °F 7.9 °F 10.4 °F 68% 30.13 in 3.0 mi West 10.4 mph - N/A Snow Light Snow
11:15 AM 19.4 °F 7.9 °F 5.0 °F 54% 30.13 in 10.0 mi WNW 10.4 mph 25.3 mph N/A   Mostly Cloudy
11:35 AM 21.2 °F 7.8 °F 5.0 °F 50% 30.12 in 10.0 mi WSW 15.0 mph - N/A   Mostly Cloudy
11:55 AM 21.2 °F 10.9 °F 6.8 °F 54% 30.12 in 10.0 mi WNW 9.2 mph 23.0 mph N/A   Overcast
12:15 PM 21.2 °F 8.3 °F 5.0 °F 50% 30.12 in 10.0 mi WSW 13.8 mph 21.9 mph N/A   Mostly Cloudy
12:35 PM 21.2 °F 8.3 °F 5.0 °F 50% 30.12 in 10.0 mi West 13.8 mph 23.0 mph N/A   Scattered Clouds
12:55 PM 21.2 °F 8.3 °F 5.0 °F 50% 30.12 in 10.0 mi West 13.8 mph 20.7 mph N/A   Scattered Clouds
1:15 PM 23.0 °F 10.1 °F 5.0 °F 46% 30.12 in 10.0 mi WSW 15.0 mph 20.7 mph N/A   Mostly Cloudy
1:35 PM 23.0 °F 10.6 °F 6.8 °F 50% 30.11 in 10.0 mi West 13.8 mph 19.6 mph N/A   Scattered Clouds
1:55 PM 23.0 °F 10.6 °F 5.0 °F 46% 30.10 in 10.0 mi West 13.8 mph 17.3 mph N/A   Scattered Clouds
2:15 PM 23.0 °F 10.6 °F 5.0 °F 46% 30.10 in 10.0 mi West 13.8 mph 19.6 mph N/A   Scattered Clouds
2:35 PM 23.0 °F 10.6 °F 5.0 °F 46% 30.10 in 10.0 mi West 13.8 mph 19.6 mph N/A   Scattered Clouds
2:55 PM 23.0 °F 10.6 °F 5.0 °F 46% 30.10 in 10.0 mi WSW 13.8 mph 20.7 mph N/A   Scattered Clouds
3:15 PM 23.0 °F 11.7 °F 5.0 °F 46% 30.10 in 10.0 mi WSW 11.5 mph 18.4 mph N/A   Scattered Clouds
3:35 PM 23.0 °F 11.7 °F 5.0 °F 46% 30.11 in 10.0 mi West 11.5 mph 19.6 mph N/A   Clear
3:55 PM 23.0 °F 11.7 °F 5.0 °F 46% 30.11 in 10.0 mi West 11.5 mph 16.1 mph N/A   Clear
4:15 PM 23.0 °F 14.7 °F 5.0 °F 46% 30.12 in 10.0 mi West 6.9 mph - N/A   Clear
4:35 PM 23.0 °F 11.7 °F 3.2 °F 43% 30.13 in 10.0 mi West 11.5 mph 17.3 mph N/A   Clear
4:55 PM 21.2 °F 10.1 °F 3.2 °F 46% 30.13 in 10.0 mi West 10.4 mph 16.1 mph N/A   Clear
5:15 PM 21.2 °F 11.7 °F 3.2 °F 46% 30.14 in 10.0 mi West 8.1 mph - N/A   Clear
5:35 PM 21.2 °F 14.9 °F 3.2 °F 46% 30.14 in 10.0 mi West 4.6 mph - N/A   Clear
5:55 PM 19.4 °F 12.8 °F 3.2 °F 49% 30.14 in 10.0 mi West 4.6 mph - N/A   Clear
6:15 PM 19.4 °F 12.8 °F 3.2 °F 49% 30.15 in 10.0 mi WSW 4.6 mph - N/A   Clear
6:35 PM 17.6 °F 12.3 °F 5.0 °F 58% 30.16 in 10.0 mi SW 3.5 mph - N/A   Clear
6:55 PM 17.6 °F 9.3 °F 5.0 °F 58% 30.16 in 10.0 mi WSW 5.8 mph - N/A   Clear
7:15 PM 17.6 °F 10.7 °F 5.0 °F 58% 30.17 in 10.0 mi WSW 4.6 mph - N/A   Clear
7:35 PM 17.6 °F 9.3 °F 5.0 °F 58% 30.17 in 10.0 mi WSW 5.8 mph - N/A   Clear
7:55 PM 17.6 °F 8.2 °F 5.0 °F 58% 30.17 in 10.0 mi WSW 6.9 mph - N/A   Clear
8:15 PM 17.6 °F 9.3 °F 5.0 °F 58% 30.18 in 10.0 mi West 5.8 mph - N/A   Clear
8:35 PM 17.6 °F 9.3 °F 5.0 °F 58% 30.18 in 10.0 mi West 5.8 mph - N/A   Clear
8:55 PM 17.6 °F 8.2 °F 5.0 °F 58% 30.19 in 10.0 mi West 6.9 mph - N/A   Clear
9:15 PM 17.6 °F 8.2 °F 5.0 °F 58% 30.19 in 10.0 mi WSW 6.9 mph - N/A   Clear
9:35 PM 17.6 °F 7.3 °F 5.0 °F 58% 30.20 in 10.0 mi WSW 8.1 mph - N/A   Clear
9:55 PM 17.6 °F 8.2 °F 5.0 °F 58% 30.21 in 10.0 mi WSW 6.9 mph - N/A   Clear
10:15 PM 17.6 °F 8.2 °F 5.0 °F 58% 30.20 in 10.0 mi WSW 6.9 mph - N/A   Clear
10:35 PM 17.6 °F 9.3 °F 5.0 °F 58% 30.21 in 10.0 mi WSW 5.8 mph - N/A   Clear
10:55 PM 17.6 °F 10.7 °F 5.0 °F 58% 30.21 in 10.0 mi SW 4.6 mph - N/A   Clear
11:15 PM 15.8 °F 7.2 °F 5.0 °F 62% 30.21 in 10.0 mi WSW 5.8 mph - N/A   Clear
11:35 PM 15.8 °F 8.6 °F 5.0 °F 62% 30.20 in 10.0 mi SW 4.6 mph - N/A   Clear
11:55 PM 15.8 °F - 5.0 °F 62% 30.21 in 10.0 mi Calm Calm - N/A   Clear